Location: Roc des P�zouls
(43.9667°N, 3.5500°E)
Time: 03:30:16
(UTC+00:00)

Cosmos 1400 Rocket - Pass Details

Date: 14 November 2019
Orbit: 522 x 568 km, 81.2° (Epoch: 12 December)

Event Time Altitude Azimuth Distance (km) Brightness Sun altitude
Rises 06:03:39 0° 352° (N) 2,769 6.1 -6.7°
Reaches altitude 10° 06:05:52 10° 356° (N) 1,862 5.3 -6.3°
Maximum altitude 06:09:57 64° 78° (ENE) 621 3.4 -5.6°
Drops below altitude 10° 06:13:57 10° 160° (SSE) 1,822 6.1 -5.0°
Sets 06:16:06 0° 164° (SSE) 2,703 6.9 -4.6°
